Location: Cudham
(51.3000°N, 0.0667°E)
Time: 19:11:25
(UTC+00:00)

Meteor 1-19 Rocket - Pass Details

Date: 19 May 2025
Orbit: 805 x 927 km, 81.2° (Epoch: 23 June)

Event Time Altitude Azimuth Distance (km) Brightness Sun altitude
Exits shadow 22:25:41 23° 174° (S) 1,865 5.4 -16.0°
Maximum altitude 22:29:32 67° 98° (E) 1,003 4.4 -16.2°
Drops below altitude 10° 22:35:31 10° 17° (NNE) 2,630 7.5 -16.5°
Sets 22:38:00 0° 15° (NNE) 3,567 8.4 -16.7°
